| time (UTC) | temp F | wind direction | speed MPH | gust MPH | rain 1hr in | rain 24hr in | rain mn in | humidity % | barometer mb |
| 20260510133742 | 57 | 13 | 2.0 | 3.0 | 0.00 | 0.00 | 0.00 | 88 | |
| 20260510133244 | 57 | 330 | 0.0 | 4.0 | 0.00 | 0.00 | 0.00 | 88 | |
| 20260510132801 | 57 | 316 | 1.0 | 4.0 | 0.00 | 0.00 | 0.00 | 88 | |
| 20260510132315 | 57 | 303 | 2.0 | 3.0 | 0.00 | 0.00 | 0.00 | 88 | |
| 20260510131756 | 57 | 312 | 1.0 | 3.0 | 0.00 | 0.00 | 0.00 | 88 | |
| 20260510131236 | 57 | 290 | 0.0 | 3.0 | 0.00 | 0.00 | 0.00 | 88 | |
| 20260510130735 | 57 | 324 | 2.0 | 4.0 | 0.00 | 0.00 | 0.00 | 88 | |
| 20260510130255 | 57 | 320 | 2.0 | 4.0 | 0.00 | 0.00 | 0.00 | 88 | |
| 20260510125736 | 58 | 320 | 2.0 | 3.0 | 0.00 | 0.00 | 0.00 | 88 | |
| 20260510125307 | 58 | 174 | 0.0 | 0.0 | 0.00 | 0.00 | 0.00 | 88 | |
| 20260510124803 | 58 | 174 | 0.0 | 3.0 | 0.00 | 0.00 | 0.00 | 88 | |
| 20260510124244 | 58 | 174 | 1.0 | 4.0 | 0.00 | 0.00 | 0.00 | 88 | |
| 20260510123740 | 58 | 152 | 1.0 | 5.0 | 0.00 | 0.00 | 0.00 | 87 | |
| 20260510123251 | 58 | 89 | 2.0 | 5.0 | 0.00 | 0.00 | 0.00 | 87 | |
| 20260510122753 | 58 | 96 | 2.0 | 5.0 | 0.00 | 0.00 | 0.00 | 87 | |
| 20260510122257 | 58 | 132 | 1.0 | 4.0 | 0.00 | 0.00 | 0.00 | 87 | |
| 20260510121758 | 58 | 107 | 1.0 | 3.0 | 0.00 | 0.00 | 0.00 | 87 | |
| 20260510121240 | 58 | 136 | 2.0 | 3.0 | 0.00 | 0.00 | 0.00 | 87 | |
| 20260510120738 | 58 | 149 | 0.0 | 2.0 | 0.00 | 0.00 | 0.00 | 87 | |
| 20260510120239 | 58 | 149 | 1.0 | 5.0 | 0.00 | 0.00 | 0.00 | 87 | |
| 20260510115740 | 58 | 110 | 1.0 | 5.0 | 0.00 | 0.00 | 0.00 | 87 | |
| 20260510115252 | 58 | 60 | 2.0 | 3.0 | 0.00 | 0.00 | 0.00 | 87 | |
| 20260510114755 | 58 | 47 | 2.0 | 3.0 | 0.00 | 0.00 | 0.00 | 87 | |
| 20260510114238 | 58 | 90 | 1.0 | 2.0 | 0.00 | 0.00 | 0.00 | 87 | |
| 20260510113741 | 58 | 91 | 1.0 | 2.0 | 0.00 | 0.00 | 0.00 | 87 | |
| 20260510113245 | 58 | 45 | 0.0 | 1.0 | 0.00 | 0.00 | 0.00 | 87 | |
| 20260510112741 | 58 | 8 | 0.0 | 2.0 | 0.00 | 0.00 | 0.00 | 86 | |
| 20260510112317 | 58 | 47 | 0.0 | 4.0 | 0.00 | 0.00 | 0.00 | 86 | |
| 20260510111757 | 58 | 72 | 3.0 | 5.0 | 0.00 | 0.00 | 0.00 | 86 | |
| 20260510111302 | 58 | 25 | 1.0 | 4.0 | 0.00 | 0.00 | 0.00 | 86 | |
| 20260510110801 | 58 | 32 | 2.0 | 3.0 | 0.00 | 0.00 | 0.00 | 86 | |
| 20260510110254 | 58 | 42 | 2.0 | 4.0 | 0.00 | 0.00 | 0.00 | 86 | |
| 20260510105734 | 58 | 52 | 2.0 | 4.0 | 0.00 | 0.00 | 0.00 | 85 | |
| 20260510105258 | 58 | 31 | 2.0 | 5.0 | 0.00 | 0.00 | 0.00 | 85 | |
| 20260510104758 | 58 | 109 | 4.0 | 7.0 | 0.00 | 0.00 | 0.00 | 85 | |
| 20260510104240 | 59 | 100 | 4.0 | 7.0 | 0.00 | 0.00 | 0.00 | 85 | |
| 20260510103741 | 59 | 81 | 3.0 | 6.0 | 0.00 | 0.00 | 0.00 | 85 | |
| 20260510103244 | 59 | 83 | 2.0 | 6.0 | 0.00 | 0.00 | 0.00 | 84 | |
| 20260510102759 | 59 | 73 | 2.0 | 5.0 | 0.00 | 0.00 | 0.00 | 84 | |
| 20260510102237 | 59 | 77 | 4.0 | 5.0 | 0.00 | 0.00 | 0.00 | 84 | |
| 20260510101737 | 59 | 68 | 3.0 | 6.0 | 0.00 | 0.00 | 0.00 | 83 | |
| 20260510101241 | 59 | 120 | 2.0 | 4.0 | 0.00 | 0.00 | 0.00 | 83 | |
| 20260510100743 | 59 | 95 | 3.0 | 5.0 | 0.00 | 0.00 | 0.00 | 83 | |
| 20260510100243 | 60 | 94 | 2.0 | 5.0 | 0.00 | 0.00 | 0.00 | 83 | |
| 20260510095741 | 60 | 87 | 2.0 | 5.0 | 0.00 | 0.00 | 0.00 | 83 | |
| 20260510095241 | 60 | 91 | 1.0 | 3.0 | 0.00 | 0.00 | 0.00 | 82 | |
| 20260510094741 | 60 | 149 | 1.0 | 3.0 | 0.00 | 0.00 | 0.00 | 82 | |
| 20260510094240 | 60 | 136 | 2.0 | 3.0 | 0.00 | 0.00 | 0.00 | 82 | |
| 20260510093740 | 60 | 141 | 0.0 | 0.0 | 0.00 | 0.00 | 0.00 | 82 | |
| 20260510093235 | 60 | 163 | 0.0 | 0.0 | 0.00 | 0.00 | 0.00 | 81 | |
| 20260510092753 | 61 | 133 | 0.0 | 0.0 | 0.00 | 0.00 | 0.00 | 81 | |
| 20260510092236 | 61 | 125 | 0.0 | 0.0 | 0.00 | 0.00 | 0.00 | 81 | |
| 20260510091759 | 61 | 142 | 0.0 | 0.0 | 0.00 | 0.00 | 0.00 | 81 | |
| 20260510091242 | 61 | 120 | 0.0 | 0.0 | 0.00 | 0.00 | 0.00 | 81 | |
| 20260510090742 | 61 | 104 | 0.0 | 0.0 | 0.00 | 0.00 | 0.00 | 81 | |
| 20260510090242 | 61 | 68 | 0.0 | 2.0 | 0.00 | 0.00 | 0.00 | 80 | |
| 20260510085744 | 61 | 74 | 1.0 | 3.0 | 0.00 | 0.00 | 0.00 | 80 | |
| 20260510085306 | 61 | 68 | 1.0 | 4.0 | 0.00 | 0.00 | 0.00 | 80 | |
| 20260510084741 | 62 | 72 | 2.0 | 4.0 | 0.00 | 0.00 | 0.00 | 80 | |
| 20260510084251 | 62 | 64 | 2.0 | 4.0 | 0.00 | 0.00 | 0.00 | 80 | |
| 20260510083812 | 62 | 83 | 2.0 | 4.0 | 0.00 | 0.00 | 0.00 | 79 | |
| 20260510083254 | 62 | 87 | 2.0 | 4.0 | 0.00 | 0.00 | 0.00 | 79 | |
| 20260510082755 | 62 | 73 | 0.0 | 0.0 | 0.00 | 0.00 | 0.00 | 79 | |
| 20260510082257 | 62 | 79 | 0.0 | 0.0 | 0.00 | 0.00 | 0.00 | 79 | |
| 20260510081757 | 62 | 133 | 0.0 | 0.0 | 0.00 | 0.00 | 0.00 | 78 | |
| 20260510081239 | 62 | 133 | 0.0 | 2.0 | 0.00 | 0.00 | 0.00 | 78 | |
| 20260510080741 | 62 | 135 | 0.0 | 2.0 | 0.00 | 0.00 | 0.00 | 78 | |
| 20260510080241 | 63 | 120 | 0.0 | 2.0 | 0.00 | 0.00 | 0.00 | 78 | |
| 20260510075739 | 63 | 118 | 0.0 | 2.0 | 0.00 | 0.00 | 0.00 | 77 | |
| 20260510075306 | 63 | 118 | 1.0 | 2.0 | 0.00 | 0.00 | 0.00 | 77 | |
| 20260510074802 | 63 | 87 | 0.0 | 2.0 | 0.00 | 0.00 | 0.00 | 77 | |
| 20260510074241 | 63 | 82 | 1.0 | 3.0 | 0.00 | 0.00 | 0.00 | 76 | |
| 20260510073738 | 63 | 92 | 1.0 | 5.0 | 0.00 | 0.00 | 0.00 | 76 | |
| 20260510073257 | 63 | 76 | 2.0 | 5.0 | 0.00 | 0.00 | 0.00 | 76 | |
| 20260510072736 | 64 | 75 | 2.0 | 5.0 | 0.00 | 0.00 | 0.00 | 76 | |
| 20260510072236 | 64 | 79 | 2.0 | 5.0 | 0.00 | 0.00 | 0.00 | 75 | |
| 20260510071758 | 64 | 91 | 3.0 | 5.0 | 0.00 | 0.00 | 0.00 | 75 | |
| 20260510071259 | 64 | 83 | 2.0 | 4.0 | 0.00 | 0.00 | 0.00 | 75 | |
| 20260510070759 | 64 | 85 | 2.0 | 3.0 | 0.00 | 0.00 | 0.00 | 74 | |
| 20260510070258 | 64 | 70 | 2.0 | 3.0 | 0.00 | 0.00 | 0.00 | 74 | |
| 20260510065737 | 64 | 95 | 1.0 | 2.0 | 0.00 | 0.00 | 0.00 | 74 | |
| 20260510065253 | 64 | 94 | 0.0 | 2.0 | 0.00 | 0.00 | 0.00 | 74 | |
| 20260510064753 | 64 | 95 | 0.0 | 2.0 | 0.00 | 0.00 | 0.00 | 73 | |
| 20260510064237 | 64 | 95 | 1.0 | 3.0 | 0.00 | 0.00 | 0.00 | 73 | |
| 20260510063740 | 65 | 75 | 0.0 | 5.0 | 0.00 | 0.00 | 0.00 | 73 | |
| 20260510063241 | 65 | 87 | 3.0 | 5.0 | 0.00 | 0.00 | 0.00 | 73 | |
| 20260510062738 | 65 | 78 | 4.0 | 6.0 | 0.00 | 0.00 | 0.00 | 72 | |
| 20260510062259 | 65 | 83 | 3.0 | 5.0 | 0.00 | 0.00 | 0.00 | 72 | |
| 20260510061820 | 65 | 105 | 2.0 | 5.0 | 0.00 | 0.00 | 0.00 | 71 | |
| 20260510061240 | 65 | 72 | 2.0 | 4.0 | 0.00 | 0.00 | 0.00 | 71 | |
| 20260510060800 | 65 | 83 | 3.0 | 6.0 | 0.00 | 0.00 | 0.00 | 71 | |
| 20260510060256 | 65 | 83 | 3.0 | 6.0 | 0.00 | 0.00 | 0.00 | 70 | |
| 20260510055755 | 66 | 73 | 0.0 | 4.0 | 0.00 | 0.00 | 0.00 | 70 | |
| 20260510055235 | 66 | 77 | 2.0 | 5.0 | 0.00 | 0.00 | 0.00 | 69 | |
| 20260510054757 | 66 | 80 | 3.0 | 5.0 | 0.00 | 0.00 | 0.00 | 69 | |
| 20260510054242 | 66 | 77 | 3.0 | 6.0 | 0.00 | 0.00 | 0.00 | 69 | |
| 20260510053745 | 66 | 93 | 3.0 | 6.0 | 0.00 | 0.00 | 0.00 | 68 | |
| 20260510053252 | 66 | 104 | 4.0 | 7.0 | 0.00 | 0.00 | 0.00 | 67 | |
| 20260510052752 | 66 | 72 | 4.0 | 8.0 | 0.00 | 0.00 | 0.00 | 67 | |
| 20260510052236 | 66 | 107 | 4.0 | 8.0 | 0.00 | 0.00 | 0.00 | 67 | |
| 20260510051736 | 67 | 74 | 5.0 | 8.0 | 0.00 | 0.00 | 0.00 | 66 | |
| 20260510051245 | 67 | 70 | 2.0 | 5.0 | 0.00 | 0.00 | 0.00 | 66 | |
| 20260510050745 | 67 | 88 | 3.0 | 6.0 | 0.00 | 0.00 | 0.00 | 66 | |
| 20260510050244 | 67 | 90 | 4.0 | 6.0 | 0.00 | 0.00 | 0.00 | 66 | |
| 20260510045742 | 67 | 64 | 3.0 | 7.0 | 0.00 | 0.00 | 0.00 | 66 | |
| 20260510045242 | 67 | 87 | 4.0 | 7.0 | 0.00 | 0.00 | 0.00 | 66 | |
| 20260510044743 | 67 | 89 | 4.0 | 7.0 | 0.00 | 0.00 | 0.00 | 66 | |
| 20260510044248 | 67 | 97 | 4.0 | 8.0 | 0.00 | 0.00 | 0.00 | 65 | |
| 20260510043751 | 67 | 73 | 5.0 | 8.0 | 0.00 | 0.00 | 0.00 | 65 | |
| 20260510043233 | 68 | 97 | 4.0 | 8.0 | 0.00 | 0.00 | 0.00 | 65 | |
| 20260510042737 | 68 | 93 | 5.0 | 8.0 | 0.00 | 0.00 | 0.00 | 65 | |
| 20260510042235 | 68 | 87 | 3.0 | 7.0 | 0.00 | 0.00 | 0.00 | 64 | |
| 20260510041737 | 69 | 68 | 5.0 | 7.0 | 0.00 | 0.00 | 0.00 | 63 | |
| 20260510041240 | 69 | 79 | 3.0 | 6.0 | 0.00 | 0.00 | 0.00 | 64 | |
| 20260510040802 | 69 | 73 | 2.0 | 5.0 | 0.00 | 0.00 | 0.00 | 63 | |
| 20260510040315 | 69 | 91 | 2.0 | 6.0 | 0.00 | 0.00 | 0.00 | 63 | |
| 20260510035734 | 70 | 93 | 3.0 | 5.0 | 0.00 | 0.00 | 0.00 | 62 | |
| 20260510035255 | 70 | 100 | 4.0 | 5.0 | 0.00 | 0.00 | 0.00 | 61 | |
| 20260510034756 | 70 | 108 | 3.0 | 5.0 | 0.00 | 0.00 | 0.00 | 60 | |
| 20260510034234 | 71 | 95 | 2.0 | 6.0 | 0.00 | 0.00 | 0.00 | 60 | |
| 20260510033734 | 71 | 102 | 4.0 | 7.0 | 0.00 | 0.00 | 0.00 | 59 | |
| 20260510033237 | 71 | 79 | 4.0 | 7.0 | 0.00 | 0.00 | 0.00 | 58 | |
| 20260510032739 | 72 | 85 | 4.0 | 9.0 | 0.00 | 0.00 | 0.00 | 58 | |
| 20260510032240 | 72 | 135 | 3.0 | 8.0 | 0.00 | 0.00 | 0.00 | 58 | |
| 20260510031740 | 72 | 105 | 4.0 | 6.0 | 0.00 | 0.00 | 0.00 | 58 | |
| 20260510031244 | 72 | 75 | 2.0 | 5.0 | 0.00 | 0.00 | 0.00 | 58 | |
| 20260510030743 | 72 | 137 | 2.0 | 5.0 | 0.00 | 0.00 | 0.00 | 58 | |
| 20260510030253 | 72 | 318 | 0.0 | 3.0 | 0.00 | 0.00 | 0.00 | 58 | |
| 20260510025737 | 73 | 328 | 1.0 | 3.0 | 0.00 | 0.00 | 0.00 | 57 | |
| 20260510025241 | 73 | 310 | 1.0 | 5.0 | 0.00 | 0.00 | 0.00 | 57 | |
| 20260510024744 | 74 | 305 | 2.0 | 6.0 | 0.00 | 0.00 | 0.00 | 56 | |
| 20260510024242 | 74 | 336 | 3.0 | 5.0 | 0.00 | 0.00 | 0.00 | 55 | |
| 20260510023743 | 75 | 314 | 2.0 | 4.0 | 0.00 | 0.00 | 0.00 | 55 | |
| 20260510023251 | 75 | 320 | 1.0 | 4.0 | 0.00 | 0.00 | 0.00 | 54 | |
| 20260510022755 | 76 | 315 | 2.0 | 4.0 | 0.00 | 0.00 | 0.00 | 53 | |
| 20260510022235 | 76 | 295 | 2.0 | 3.0 | 0.00 | 0.00 | 0.00 | 52 | |
| 20260510021739 | 77 | 332 | 0.0 | 5.0 | 0.00 | 0.00 | 0.00 | 52 | |
| 20260510021246 | 77 | 354 | 1.0 | 5.0 | 0.00 | 0.00 | 0.00 | 52 | |
| 20260510020749 | 77 | 314 | 2.0 | 6.0 | 0.00 | 0.00 | 0.00 | 51 | |
| 20260510020255 | 77 | 320 | 3.0 | 6.0 | 0.00 | 0.00 | 0.00 | 51 | |
| 20260510015817 | 78 | 310 | 3.0 | 6.0 | 0.00 | 0.00 | 0.00 | 51 | |
| 20260510015237 | 78 | 316 | 3.0 | 6.0 | 0.00 | 0.00 | 0.00 | 50 | |
| 20260510014739 | 78 | 326 | 3.0 | 7.0 | 0.00 | 0.00 | 0.00 | 50 | |
| 20260510014237 | 79 | 308 | 4.0 | 7.0 | 0.00 | 0.00 | 0.00 | 49 | |
| 20260510013740 | 79 | 300 | 3.0 | 6.0 | 0.00 | 0.00 | 0.00 | 49 | |
| 20260510013250 | 79 | 301 | 3.0 | 7.0 | 0.00 | 0.00 | 0.00 | 49 | |
| 20260510012754 | 79 | 339 | 3.0 | 7.0 | 0.00 | 0.00 | 0.00 | 49 | |
| 20260510012238 | 80 | 337 | 4.0 | 8.0 | 0.00 | 0.00 | 0.00 | 48 | |
| 20260510011739 | 80 | 341 | 3.0 | 8.0 | 0.00 | 0.00 | 0.00 | 47 | |
| 20260510011250 | 81 | 312 | 6.0 | 8.0 | 0.00 | 0.00 | 0.00 | 47 | |
| 20260510010752 | 81 | 314 | 3.0 | 9.0 | 0.00 | 0.00 | 0.00 | 46 | |
| 20260510010251 | 82 | 316 | 3.0 | 9.0 | 0.00 | 0.00 | 0.00 | 46 | |
| 20260510005733 | 83 | 317 | 5.0 | 9.0 | 0.00 | 0.00 | 0.00 | 45 | |
| 20260510005258 | 83 | 268 | 4.0 | 9.0 | 0.00 | 0.00 | 0.00 | 44 | |
| 20260510004739 | 83 | 313 | 5.0 | 10.0 | 0.00 | 0.00 | 0.00 | 44 | |
| 20260510004240 | 84 | 244 | 5.0 | 10.0 | 0.00 | 0.00 | 0.00 | 44 | |
| 20260510003741 | 83 | 254 | 5.0 | 10.0 | 0.00 | 0.00 | 0.00 | 44 | |
| 20260510003301 | 83 | 303 | 5.0 | 9.0 | 0.00 | 0.00 | 0.00 | 44 | |
| 20260510002735 | 84 | 359 | 5.0 | 9.0 | 0.00 | 0.00 | 0.00 | 44 | |
| 20260510002252 | 84 | 335 | 6.0 | 10.0 | 0.00 | 0.00 | 0.00 | 44 | |
| 20260510001756 | 84 | 227 | 4.0 | 10.0 | 0.00 | 0.00 | 0.00 | 44 | |
| 20260510001240 | 84 | 271 | 6.0 | 10.0 | 0.00 | 0.00 | 0.00 | 43 | |
| 20260510000739 | 84 | 297 | 5.0 | 10.0 | 0.00 | 0.00 | 0.00 | 43 | |
| 20260510000237 | 85 | 285 | 6.0 | 10.0 | 0.00 | 0.00 | 0.00 | 43 | |
| 20260509235736 | 85 | 318 | 5.0 | 10.0 | 0.00 | 0.00 | 0.00 | 42 | |
| 20260509235253 | 85 | 305 | 6.0 | 10.0 | 0.00 | 0.00 | 0.00 | 42 | |
| 20260509234754 | 85 | 250 | 6.0 | 10.0 | 0.00 | 0.00 | 0.00 | 42 | |
| 20260509234237 | 85 | 289 | 5.0 | 9.0 | 0.00 | 0.00 | 0.00 | 42 | |
| 20260509233800 | 85 | 245 | 5.0 | 9.0 | 0.00 | 0.00 | 0.00 | 42 | |
| 20260509233236 | 85 | 322 | 5.0 | 9.0 | 0.00 | 0.00 | 0.00 | 41 | |
| 20260509232737 | 86 | 27 | 5.0 | 10.0 | 0.00 | 0.00 | 0.00 | 41 | |
| 20260509232236 | 86 | 335 | 5.0 | 12.0 | 0.00 | 0.00 | 0.00 | 41 | |
| 20260509231757 | 87 | 328 | 6.0 | 12.0 | 0.00 | 0.00 | 0.00 | 40 | |
| 20260509231252 | 86 | 262 | 5.0 | 11.0 | 0.00 | 0.00 | 0.00 | 41 | |
| 20260509230752 | 86 | 301 | 5.0 | 10.0 | 0.00 | 0.00 | 0.00 | 41 | |
| 20260509230319 | 86 | 345 | 4.0 | 8.0 | 0.00 | 0.00 | 0.00 | 41 | |
| 20260509225738 | 85 | 31 | 3.0 | 9.0 | 0.00 | 0.00 | 0.00 | 41 | |
| 20260509225254 | 85 | 141 | 3.0 | 9.0 | 0.00 | 0.00 | 0.00 | 41 | |
| 20260509224754 | 85 | 101 | 5.0 | 9.0 | 0.00 | 0.00 | 0.00 | 41 | |
| 20260509224259 | 87 | 66 | 6.0 | 12.0 | 0.00 | 0.00 | 0.00 | 40 | |
| 20260509223734 | 87 | 325 | 7.0 | 23.0 | 0.00 | 0.00 | 0.00 | 39 | |
| 20260509223258 | 88 | 4 | 11.0 | 23.0 | 0.00 | 0.00 | 0.00 | 38 | |
| 20260509222738 | 88 | 195 | 9.0 | 17.0 | 0.00 | 0.00 | 0.00 | 39 | |
| 20260509222238 | 87 | 217 | 4.0 | 7.0 | 0.00 | 0.00 | 0.00 | 40 | |
| 20260509221757 | 86 | 154 | 2.0 | 6.0 | 0.00 | 0.00 | 0.00 | 40 | |
| 20260509221242 | 86 | 106 | 1.0 | 7.0 | 0.00 | 0.00 | 0.00 | 40 | |
| 20260509220742 | 86 | 64 | 3.0 | 5.0 | 0.00 | 0.00 | 0.00 | 39 | |
| 20260509220241 | 85 | 124 | 2.0 | 8.0 | 0.00 | 0.00 | 0.00 | 40 | |
| 20260509215739 | 85 | 53 | 3.0 | 8.0 | 0.00 | 0.00 | 0.00 | 40 | |
| 20260509215312 | 85 | 223 | 3.0 | 7.0 | 0.00 | 0.00 | 0.00 | 40 | |
| 20260509214753 | 85 | 206 | 3.0 | 7.0 | 0.00 | 0.00 | 0.00 | 40 | |
| 20260509214233 | 85 | 100 | 4.0 | 7.0 | 0.00 | 0.00 | 0.00 | 40 | |
| 20260509213756 | 85 | 143 | 4.0 | 7.0 | 0.00 | 0.00 | 0.00 | 41 | |
| 20260509213239 | 84 | 106 | 4.0 | 13.0 | 0.00 | 0.00 | 0.00 | 40 | |
| 20260509212758 | 85 | 110 | 6.0 | 13.0 | 0.00 | 0.00 | 0.00 | 40 | |
| 20260509212247 | 86 | 137 | 4.0 | 7.0 | 0.00 | 0.00 | 0.00 | 39 | |
| 20260509211735 | 86 | 79 | 3.0 | 6.0 | 0.00 | 0.00 | 0.00 | 39 | |
| 20260509211242 | 85 | 289 | 3.0 | 5.0 | 0.00 | 0.00 | 0.00 | 39 | |
| 20260509210743 | 85 | 246 | 1.0 | 7.0 | 0.00 | 0.00 | 0.00 | 40 | |
| 20260509210247 | 84 | 222 | 2.0 | 7.0 | 0.00 | 0.00 | 0.00 | 39 | |
| 20260509205741 | 84 | 246 | 2.0 | 6.0 | 0.00 | 0.00 | 0.00 | 39 | |
| 20260509205242 | 85 | 158 | 3.0 | 6.0 | 0.00 | 0.00 | 0.00 | 39 | |
| 20260509204801 | 84 | 62 | 2.0 | 9.0 | 0.00 | 0.00 | 0.00 | 39 | |
| 20260509204239 | 84 | 101 | 5.0 | 9.0 | 0.00 | 0.00 | 0.00 | 39 | |
| 20260509203759 | 83 | 8 | 2.0 | 5.0 | 0.00 | 0.00 | 0.00 | 41 | |
| 20260509203254 | 83 | 33 | 3.0 | 5.0 | 0.00 | 0.00 | 0.00 | 42 | |
| 20260509202734 | 82 | 42 | 2.0 | 7.0 | 0.00 | 0.00 | 0.00 | 43 | |
| 20260509202256 | 82 | 157 | 4.0 | 7.0 | 0.00 | 0.00 | 0.00 | 42 | |
| 20260509201755 | 82 | 161 | 3.0 | 8.0 | 0.00 | 0.00 | 0.00 | 43 | |
| 20260509201300 | 81 | 73 | 4.0 | 8.0 | 0.00 | 0.00 | 0.00 | 43 | |
| 20260509200737 | 82 | 108 | 2.0 | 8.0 | 0.00 | 0.00 | 0.00 | 44 | |
| 20260509200235 | 82 | 137 | 2.0 | 5.0 | 0.00 | 0.00 | 0.00 | 43 | |
| 20260509195734 | 81 | 307 | 0.0 | 6.0 | 0.00 | 0.00 | 0.00 | 44 | |
| 20260509195240 | 81 | 152 | 2.0 | 4.0 | 0.00 | 0.00 | 0.00 | 44 | |
| 20260509194801 | 80 | 189 | 1.0 | 7.0 | 0.00 | 0.00 | 0.00 | 45 | |
| 20260509194249 | 80 | 109 | 3.0 | 7.0 | 0.00 | 0.00 | 0.00 | 45 | |
| 20260509193751 | 80 | 57 | 4.0 | 7.0 | 0.00 | 0.00 | 0.00 | 45 | |
| 20260509193252 | 79 | 245 | 2.0 | 7.0 | 0.00 | 0.00 | 0.00 | 46 | |
| 20260509192752 | 78 | 96 | 3.0 | 7.0 | 0.00 | 0.00 | 0.00 | 47 | |
| 20260509192236 | 79 | 77 | 3.0 | 7.0 | 0.00 | 0.00 | 0.00 | 47 | |
| 20260509191756 | 79 | 65 | 2.0 | 7.0 | 0.00 | 0.00 | 0.00 | 47 | |
| 20260509191258 | 78 | 37 | 3.0 | 8.0 | 0.00 | 0.00 | 0.00 | 48 | |
| 20260509190800 | 78 | 64 | 3.0 | 8.0 | 0.00 | 0.00 | 0.00 | 48 | |
| 20260509190257 | 78 | 226 | 2.0 | 7.0 | 0.00 | 0.00 | 0.00 | 49 | |
| 20260509185756 | 77 | 184 | 2.0 | 7.0 | 0.00 | 0.00 | 0.00 | 50 | |
| 20260509185234 | 77 | 86 | 1.0 | 6.0 | 0.00 | 0.00 | 0.00 | 50 | |
| 20260509184756 | 76 | 45 | 3.0 | 4.0 | 0.00 | 0.00 | 0.00 | 52 | |
| 20260509184236 | 76 | 73 | 3.0 | 6.0 | 0.00 | 0.00 | 0.00 | 52 | |
| 20260509183738 | 75 | 145 | 4.0 | 6.0 | 0.00 | 0.00 | 0.00 | 52 | |
| 20260509183236 | 75 | 226 | 2.0 | 6.0 | 0.00 | 0.00 | 0.00 | 53 | |
| 20260509182737 | 76 | 48 | 3.0 | 8.0 | 0.00 | 0.00 | 0.00 | 53 | |
| 20260509182241 | 76 | 124 | 2.0 | 8.0 | 0.00 | 0.00 | 0.00 | 53 | |
| 20260509181740 | 75 | 42 | 1.0 | 6.0 | 0.00 | 0.00 | 0.00 | 55 | |
| 20260509181236 | 74 | 185 | 4.0 | 6.0 | 0.00 | 0.00 | 0.00 | 56 | |
| 20260509180735 | 74 | 195 | 3.0 | 6.0 | 0.00 | 0.00 | 0.00 | 56 | |
| 20260509180253 | 74 | 236 | 1.0 | 6.0 | 0.00 | 0.00 | 0.00 | 57 | |
| 20260509175752 | 74 | 115 | 1.0 | 6.0 | 0.00 | 0.00 | 0.00 | 58 | |
| 20260509175234 | 73 | 168 | 2.0 | 5.0 | 0.00 | 0.00 | 0.00 | 60 | |
| 20260509174737 | 73 | 52 | 3.0 | 5.0 | 0.00 | 0.00 | 0.00 | 60 | |
| 20260509174247 | 73 | 150 | 2.0 | 3.0 | 0.00 | 0.00 | 0.00 | 61 | |
| 20260509173742 | 71 | 66 | 2.0 | 3.0 | 0.00 | 0.00 | 0.00 | 62 | |
| 20260509173239 | 71 | 199 | 2.0 | 5.0 | 0.00 | 0.00 | 0.00 | 63 | |
| 20260509172733 | 71 | 222 | 3.0 | 5.0 | 0.00 | 0.00 | 0.00 | 64 | |
| 20260509172255 | 70 | 276 | 2.0 | 4.0 | 0.00 | 0.00 | 0.00 | 65 | |
| 20260509171734 | 70 | 41 | 1.0 | 3.0 | 0.00 | 0.00 | 0.00 | 66 | |
| 20260509171245 | 69 | 75 | 0.0 | 4.0 | 0.00 | 0.00 | 0.00 | 66 | |
| 20260509170802 | 69 | 28 | 3.0 | 4.0 | 0.00 | 0.00 | 0.00 | 67 | |
| 20260509170233 | 69 | 347 | 1.0 | 5.0 | 0.00 | 0.00 | 0.00 | 68 | |
| 20260509165740 | 68 | 20 | 2.0 | 5.0 | 0.00 | 0.00 | 0.00 | 69 | |
| 20260509165238 | 67 | 318 | 2.0 | 5.0 | 0.00 | 0.00 | 0.00 | 71 | |
| 20260509164759 | 67 | 339 | 1.0 | 5.0 | 0.00 | 0.00 | 0.00 | 71 | |
| 20260509164244 | 67 | 4 | 3.0 | 5.0 | 0.00 | 0.00 | 0.00 | 72 | |
| 20260509163745 | 66 | 103 | 3.0 | 5.0 | 0.00 | 0.00 | 0.00 | 73 | |
| 20260509163244 | 66 | 37 | 2.0 | 4.0 | 0.00 | 0.00 | 0.00 | 75 | |
| 20260509162743 | 65 | 27 | 1.0 | 4.0 | 0.00 | 0.00 | 0.00 | 77 | |
| 20260509162238 | 64 | 24 | 3.0 | 5.0 | 0.00 | 0.00 | 0.00 | 78 | |
| 20260509161739 | 64 | 32 | 3.0 | 6.0 | 0.00 | 0.00 | 0.00 | 79 | |
| 20260509161242 | 64 | 316 | 2.0 | 6.0 | 0.00 | 0.00 | 0.00 | 81 | |
| 20260509160740 | 63 | 290 | 1.0 | 3.0 | 0.00 | 0.00 | 0.00 | 82 | |
| 20260509160239 | 63 | 262 | 2.0 | 4.0 | 0.00 | 0.00 | 0.00 | 83 | |
| 20260509155740 | 62 | 312 | 2.0 | 4.0 | 0.00 | 0.00 | 0.00 | 84 | |
| 20260509155258 | 62 | 301 | 2.0 | 5.0 | 0.00 | 0.00 | 0.00 | 84 | |
| 20260509154737 | 62 | 312 | 2.0 | 4.0 | 0.00 | 0.00 | 0.00 | 85 | |
| 20260509154258 | 61 | 265 | 0.0 | 3.0 | 0.00 | 0.00 | 0.00 | 86 | |
| 20260509153735 | 61 | 32 | 0.0 | 3.0 | 0.00 | 0.00 | 0.00 | 86 | |
| 20260509153239 | 60 | 134 | 2.0 | 3.0 | 0.00 | 0.00 | 0.00 | 86 | |
| 20260509152741 | 60 | 120 | 1.0 | 3.0 | 0.00 | 0.00 | 0.00 | 87 | |
| 20260509152308 | 60 | 287 | 1.0 | 3.0 | 0.00 | 0.00 | 0.00 | 87 | |
| 20260509151748 | 60 | 308 | 0.0 | 3.0 | 0.00 | 0.00 | 0.00 | 87 | |
| 20260509151253 | 59 | 306 | 1.0 | 3.0 | 0.00 | 0.00 | 0.00 | 87 | |
| 20260509150735 | 59 | 265 | 1.0 | 5.0 | 0.00 | 0.00 | 0.00 | 87 | |
| 20260509150305 | 59 | 257 | 3.0 | 5.0 | 0.00 | 0.00 | 0.00 | 87 | |
| 20260509145802 | 59 | 325 | 2.0 | 4.0 | 0.00 | 0.00 | 0.00 | 88 | |
| 20260509145253 | 59 | 322 | 2.0 | 4.0 | 0.00 | 0.00 | 0.00 | 88 | |
| 20260509144735 | 59 | 319 | 2.0 | 4.0 | 0.00 | 0.00 | 0.00 | 88 | |
| 20260509144251 | 59 | 316 | 0.0 | 3.0 | 0.00 | 0.00 | 0.00 | 88 | |
| 20260509143753 | 58 | 320 | 2.0 | 3.0 | 0.00 | 0.00 | 0.00 | 88 | |
| 20260509143238 | 58 | 326 | 2.0 | 4.0 | 0.00 | 0.00 | 0.00 | 88 | |
| 20260509142740 | 58 | 18 | 1.0 | 4.0 | 0.00 | 0.00 | 0.00 | 88 | |
| 20260509142237 | 58 | 322 | 2.0 | 4.0 | 0.00 | 0.00 | 0.00 | 88 | |
| 20260509141739 | 58 | 347 | 0.0 | 3.0 | 0.00 | 0.00 | 0.00 | 88 | |
| 20260509141251 | 58 | 320 | 1.0 | 3.0 | 0.00 | 0.00 | 0.00 | 88 | |
| 20260509140734 | 58 | 315 | 0.0 | 2.0 | 0.00 | 0.00 | 0.00 | 88 | |
| 20260509140243 | 58 | 296 | 0.0 | 2.0 | 0.00 | 0.00 | 0.00 | 88 | |
| 20260509135742 | 58 | 332 | 1.0 | 2.0 | 0.00 | 0.00 | 0.00 | 88 | |
| 20260509135306 | 58 | 331 | 1.0 | 2.0 | 0.00 | 0.00 | 0.00 | 88 | |
| 20260509134740 | 58 | 48 | 1.0 | 2.0 | 0.00 | 0.00 | 0.00 | 88 | |
| 20260509134242 | 58 | 75 | 0.0 | 3.0 | 0.00 | 0.00 | 0.00 | 88 |